Погода в Восточном

Россия / Хабаровский край     48°28′56″N   135°15′52″E
темп.,
°C
ветер,
м/с
пор.,
м/с
влажн.,
%
обл.,
%
осадки,
мм/ч
давл.,
гПа
погр.,
м
30 ноября, вт
вт3001:00−16ю2396100 0.0 102446
04:00−15ю3691100 0.0 1024131
07:00−16зсз1195100 0.0 102322
10:00−14ю018988 0.0 102269
13:00−11зюз0181100 0.0 1020253
16:00−11с1188100 0.0 1018116
19:00−12ссв1192100 0.0 101738
22:00−12ссв2489100 0.0 1013178
1 декабря, ср
ср101:00−12ссв51193100 0.4 1010339
04:00−12с81895100 2.6 1004575
07:00−10ссв112093100 3.8 999952
10:00−10ссв111993100 8.3 9971127
13:00−10с91994100 3.9 9941296
16:00−10ссз81394100 7.2 9931116
19:00−9ссз71394100 1.6 993917
22:00−10зсз61095100 2.7 992400
2 декабря, чт
чт201:00−10з61093100 0.4 993345
04:00−11з71192100 0.7 994374
07:00−14зюз61289100 0.1 996320
10:00−16юз61284100 0.1 998356
13:00−14ююз598161 0.0 998446
16:00−14юз4118298 0.0 999315
19:00−16ююз359297 0.0 100064
22:00−12ю2495100 0.0 999115
3 декабря, пт
пт301:00−13ююз119799 0.1 99915
04:00−14з239798 0.1 100057
07:00−15зюз499065 0.1 1001133
10:00−16зюз5108557 0.1 1004172
13:00−14зюз588498 0.0 1006332
16:00−14юз488764 0.0 1008298
19:00−20ю3410078 0.0 101241
22:00−22ююз3410025 0.0 101333
4 декабря, сб
сб401:00−27ю2210079 0.0 10159
04:00−30зюз1110081 0.0 10179
07:00−32ююз1110082 0.0 10199
10:00−27зюз1110096 0.0 102132
13:00−21з239699 0.0 1021208
16:00−21з229961 0.1 102240
19:00−29юз2210039 0.0 102411
22:00−31ююв2210052 0.0 10259